Location: Newark
(13.6797°N, 8.5297°E)
Time: 03:47:15
(UTC+00:00)

Courier 1B Rocket - Pass Details

Date: 20 January 2020
Orbit: 920 x 1202 km, 28.2° (Epoch: 16 February)

Event Time Altitude Azimuth Distance (km) Brightness Sun altitude
Rises 14:00:47 0° 288° (WNW) 3,720 8.4 41.0°
Reaches altitude 10° 14:04:09 10° 302° (WNW) 2,722 7.6 40.4°
Maximum altitude 14:09:08 22° 352° (N) 1,916 6.5 39.5°
Drops below altitude 10° 14:13:58 10° 43° (NE) 2,622 6.9 38.6°
Sets 14:17:09 0° 58° (ENE) 3,549 7.5 38.1°
